[[{"header":{"parameterUnit":"m.s-1","parameterCategory":1,"la1":30.2991,"la2":30.254,"lo1":-89.0895,"lo2":-89.0444,"dy":0.0017,"dx":0.0017,"nx":28,"ny":28,"refTime":"2024-04-12T09:00:00:Z","depth":0,"parameterNumber":2,"parameterNumberName":"U-component_of_WINDS"},"data":[0,0,0,0,0,0,0,0,0,0,0,0,0,0,0,0,0,0,0,0,0,0,0,0,0,0,0,0,0,0,0,0,0,0,0,0,0,0,0,0,0,0,0,0,0,0,0,0,0,0,0,0,0,0,0,0,0,0,2.6476,2.6477,0,2.6544,2.6545,2.6545,2.6506,2.6505,2.6503,2.6501,2.6571,2.6574,2.6578,0,0,0,0,0,0,0,0,0,0,0,0,0,2.6315,2.6318,2.6476,2.6477,2.6478,2.6544,2.6545,2.6545,2.6507,2.6505,2.6502,2.65,2.6569,2.6574,2.6578,0,0,0,0,0,0,0,0,0,0,0,0,0,2.6384,2.6319,2.6476,2.6466,2.6466,2.6543,2.6545,2.6546,2.6507,2.6504,2.6502,2.6499,2.6568,2.6573,2.6579,2.6669,0,0,2.6595,2.6598,0,0,0,0,0,0,0,0,2.638,2.639,2.6467,2.6467,2.6467,2.6514,2.6513,2.6587,2.6508,2.6492,2.6501,2.6498,2.6554,2.656,2.6579,2.6672,2.6675,2.6596,2.6599,2.6601,2.6603,0,0,0,0,0,0,0,2.6375,2.6387,2.6503,2.6468,2.6468,2.6459,2.6466,2.6527,2.6538,2.6493,2.649,2.6499,2.6554,2.6574,2.6581,2.6676,2.6596,2.66,2.6604,2.6606,2.6848,2.6851,0,0,0,0,0,0,2.6371,2.6383,2.6501,2.6505,2.6416,2.6464,2.6472,2.6502,2.6537,2.654,2.6501,2.6497,2.6566,2.6574,2.6583,2.6692,2.6601,2.6606,2.661,2.6845,2.6849,2.6852,0,0,0,0,0,0,2.6368,2.6382,2.6498,2.6443,2.6457,2.647,2.6504,2.6505,2.6525,2.6543,2.6545,2.652,2.6564,2.6575,2.6648,2.6694,2.6609,2.6614,2.6841,2.6846,2.6851,2.691,0,0,0,0,0,0,2.6363,2.6381,2.6415,2.6444,2.646,2.6562,2.6507,2.6508,2.6535,2.6529,2.6562,2.6564,2.6563,2.664,2.6654,2.67,2.6618,2.6837,2.6844,2.6849,2.6904,2.6916,2.6927,0,0,0,0,0,2.6358,2.6429,2.6417,2.6431,2.6503,2.6564,2.6574,2.657,2.6538,2.6573,2.6585,2.6563,2.6687,2.6648,2.6663,2.6711,2.6834,2.6842,2.6849,2.6899,2.6914,2.6926,0,0,0,0,0,0,2.6405,2.6433,2.642,2.6502,2.6531,2.6558,2.6601,2.6586,2.6625,2.6619,2.6613,2.6621,2.6697,2.6711,2.6668,2.6801,2.6756,2.6766,2.6789,2.6803,2.6814,2.6809,2.6623,0,0,0,0,0,2.6425,2.6472,2.6494,2.6565,2.658,2.6588,2.6615,2.661,2.664,2.6652,2.6669,2.6699,2.6745,2.6775,2.6817,2.6906,2.6913,2.6947,2.6958,2.6967,2.6976,2.7025,2.704,2.6876,2.6876,2.6876,0,0,2.6466,2.6488,2.6518,2.6575,2.6597,2.6646,2.6599,2.6653,2.6689,2.666,2.673,2.6744,2.6777,2.6858,2.6895,2.6873,2.7023,2.6976,2.6983,2.6988,2.7034,2.7049,2.7063,2.6881,2.688,2.6879,0,0,2.6568,2.6588,2.665,2.6673,2.6707,2.6712,2.6727,2.6756,2.6765,2.6835,2.6814,2.6858,2.6936,2.6961,2.6984,2.7096,2.7078,2.711,2.7169,2.7216,2.7229,2.7241,2.7281,2.7296,2.7119,2.7119,2.7119,0,2.6615,2.6689,2.6684,2.674,2.6766,2.6742,2.6805,2.6827,2.6874,2.6892,2.6867,2.6965,2.6986,2.7073,2.7101,2.712,2.7137,2.7106,2.7228,2.7239,2.725,2.7288,2.7304,2.7123,2.7122,2.7122,2.7122,0,2.6746,2.6797,2.6843,2.6888,2.692,2.6979,2.6984,2.7016,2.7009,2.7017,2.7089,2.7113,2.7161,2.7181,2.7175,2.7268,2.7253,2.7228,2.7182,2.7269,2.7305,2.732,2.7128,2.7127,2.7126,2.7125,0,0,2.6878,2.6921,2.6938,2.6958,2.6994,2.7034,2.7092,2.7139,2.7167,2.72,2.725,2.7317,2.7294,2.732,2.7316,2.7358,2.7446,2.7328,2.7328,2.7349,2.7551,2.757,2.7587,2.7435,2.7437,2.744,2.7548,0,2.6982,2.7083,2.7081,2.7176,2.7224,2.7202,2.7253,2.7281,2.7291,2.7333,2.7344,2.7392,2.7358,2.7374,2.7414,2.7427,2.7487,2.7419,2.7481,2.7483,2.7473,2.7606,2.7626,2.7727,2.7562,2.7565,2.7567,0,2.7116,2.7154,2.7253,2.7283,2.7303,2.7349,2.7392,2.7433,2.7464,2.7468,2.7498,2.7488,2.7548,2.7501,2.7584,2.7538,2.7563,2.7574,2.7578,2.7583,2.753,2.7615,2.7759,2.7775,2.7589,2.7587,2.7585,0,2.7203,2.7278,2.7348,2.7366,2.7403,2.7436,2.7453,2.7481,2.751,2.7548,2.7566,2.7611,2.7635,2.767,2.7673,2.7638,2.7757,2.771,2.7762,2.7762,2.7788,2.7786,2.7938,2.7804,2.7804,2.7804,2.7804,0,2.7319,2.738,2.7387,2.743,2.7499,2.7497,2.7565,2.7579,2.7605,2.7651,2.7635,2.7678,2.7679,2.7723,2.7725,2.7794,2.7805,2.7811,2.781,2.7812,2.7811,2.7828,2.7821,2.7808,2.7807,2.7806,2.7806,0,2.7427,2.7434,2.7508,2.7537,2.7546,2.7595,2.762,2.7661,2.767,2.7728,2.7741,2.7755,2.7806,2.7812,2.7872,2.7874,2.7957,2.7949,2.7946,2.7945,2.7997,2.7992,2.8165,2.8188,2.8039,2.8041,2.8042,0,2.75,2.7547,2.7581,2.7611,2.7629,2.7677,2.7706,2.7706,2.7737,2.7777,2.7814,2.7864,2.7904,2.7987,2.8002,2.8048,2.8042,2.8099,2.8048,2.8049,2.8043,2.804,2.8045,2.8109,2.8111,2.8112,2.8113,0,2.763,2.7631,2.7674,2.7718,2.7753,2.7788,2.7821,2.7846,2.785,2.7886,2.7939,2.797,2.8031,2.8081,2.8127,2.8144,2.813,2.8129,2.8144,2.8146,2.8142,2.8145,2.7973,2.8125,2.8124,2.8123,2.8122,2.8122,2.7723,2.7764,2.7795,2.7843,2.7868,2.7899,2.7939,2.7953,2.7997,2.8047,2.8044,2.8102,2.8134,2.8193,2.8215,2.826,2.8241,2.8262,2.8268,2.8273,2.8278,2.8135,2.8269,2.8268,2.8268,2.8268,2.8267,0,2.7852,2.7871,2.7915,2.7962,2.8,2.7983,2.8019,2.8052,2.8103,2.8134,2.8173,2.8234,2.8283,2.8303,2.835,2.8383,2.8378,2.8396,2.8393,2.8398,2.8292,2.8275,2.8399,2.8399,2.8399,2.8399,2.8399,2.8399,2.7924,2.7993,2.7998,2.8079,2.8098,2.8154,2.8176,2.8205,2.823,2.8298,2.8339,2.8351,2.8378,2.8427,2.8472,2.8476,2.8495,2.8516,2.8517,2.8418,2.8405,2.8392,2.8376,2.852,2.852,2.8619,2.862,2.862]},{"header":{"parameterUnit":"m.s-1","parameterCategory":1,"la1":30.2991,"la2":30.254,"lo1":-89.0895,"lo2":-89.0444,"dy":0.0017,"dx":0.0017,"nx":28,"ny":28,"refTime":"2024-04-12T09:00:00:Z","depth":0,"parameterNumber":3,"parameterNumberName":"V-component_of_WINDS"},"data":[0,0,0,0,0,0,0,0,0,0,0,0,0,0,0,0,0,0,0,0,0,0,0,0,0,0,0,0,0,0,0,0,0,0,0,0,0,0,0,0,0,0,0,0,0,0,0,0,0,0,0,0,0,0,0,0,0,0,-3.2313,-3.2314,0,-3.2405,-3.2406,-3.2407,-3.2365,-3.2363,-3.236,-3.2358,-3.2452,-3.2457,-3.2461,0,0,0,0,0,0,0,0,0,0,0,0,0,-3.2102,-3.2106,-3.2313,-3.2314,-3.2315,-3.2404,-3.2406,-3.2407,-3.2365,-3.2363,-3.236,-3.2357,-3.2451,-3.2456,-3.2462,0,0,0,0,0,0,0,0,0,0,0,0,0,-3.2193,-3.2107,-3.2313,-3.2305,-3.2305,-3.2404,-3.2406,-3.2407,-3.2366,-3.2362,-3.2359,-3.2356,-3.2449,-3.2456,-3.2462,-3.2574,0,0,-3.2484,-3.2487,0,0,0,0,0,0,0,0,-3.2188,-3.2201,-3.2305,-3.2306,-3.2306,-3.237,-3.2366,-3.2463,-3.2367,-3.2343,-3.2358,-3.2354,-3.2428,-3.2436,-3.2461,-3.2579,-3.2583,-3.2484,-3.2489,-3.2492,-3.2494,0,0,0,0,0,0,0,-3.2182,-3.2197,-3.2349,-3.2307,-3.2307,-3.2297,-3.2306,-3.2384,-3.2403,-3.2345,-3.2342,-3.2353,-3.2427,-3.2454,-3.2463,-3.2584,-3.2484,-3.249,-3.2495,-3.2497,-3.2798,-3.2802,0,0,0,0,0,0,-3.2176,-3.2192,-3.2346,-3.2352,-3.2238,-3.2304,-3.2314,-3.2353,-3.2402,-3.2407,-3.2356,-3.2351,-3.2444,-3.2455,-3.2466,-3.26,-3.2491,-3.2498,-3.2502,-3.2795,-3.2799,-3.2803,0,0,0,0,0,0,-3.2171,-3.219,-3.2342,-3.2271,-3.229,-3.2311,-3.2355,-3.2356,-3.2383,-3.2411,-3.2414,-3.238,-3.2442,-3.2456,-3.2548,-3.2603,-3.2501,-3.2507,-3.279,-3.2796,-3.2801,-3.287,0,0,0,0,0,0,-3.2166,-3.2189,-3.2231,-3.2273,-3.2294,-3.2423,-3.2358,-3.2361,-3.2396,-3.239,-3.2434,-3.2439,-3.244,-3.2538,-3.2555,-3.2611,-3.2513,-3.2785,-3.2793,-3.28,-3.2863,-3.2877,-3.2889,0,0,0,0,0,-3.2158,-3.2247,-3.2234,-3.2252,-3.2347,-3.2426,-3.2438,-3.2438,-3.24,-3.2443,-3.2461,-3.2437,-3.2594,-3.2547,-3.2566,-3.2625,-3.2782,-3.2791,-3.2799,-3.2857,-3.2874,-3.2889,0,0,0,0,0,0,-3.2211,-3.2252,-3.2238,-3.2342,-3.2381,-3.2419,-3.2473,-3.2457,-3.2507,-3.25,-3.2498,-3.2508,-3.2603,-3.2623,-3.257,-3.2736,-3.2682,-3.2695,-3.2719,-3.2736,-3.275,-3.2743,-3.2519,0,0,0,0,0,-3.2235,-3.2295,-3.2328,-3.2417,-3.2437,-3.2452,-3.2486,-3.2483,-3.2523,-3.2539,-3.2563,-3.2603,-3.2662,-3.27,-3.2755,-3.2865,-3.2875,-3.2915,-3.2929,-3.2939,-3.2951,-3.3011,-3.3029,-3.2832,-3.2832,-3.2831,0,0,-3.2285,-3.2315,-3.2353,-3.2428,-3.2458,-3.2521,-3.2466,-3.2534,-3.2581,-3.2549,-3.2637,-3.2657,-3.2701,-3.2803,-3.2849,-3.2823,-3.3007,-3.295,-3.2959,-3.2964,-3.3021,-3.304,-3.3057,-3.2838,-3.2837,-3.2836,0,0,-3.2408,-3.2436,-3.2514,-3.2545,-3.259,-3.26,-3.2618,-3.2659,-3.2671,-3.2759,-3.2737,-3.2792,-3.2893,-3.2925,-3.2955,-3.3091,-3.3071,-3.3109,-3.3179,-3.3238,-3.3254,-3.3267,-3.3316,-3.3334,-3.312,-3.312,-3.312,0,-3.2464,-3.2558,-3.2556,-3.2626,-3.266,-3.2635,-3.2713,-3.2743,-3.2805,-3.2829,-3.2799,-3.2925,-3.2953,-3.3062,-3.3095,-3.312,-3.3141,-3.3104,-3.3251,-3.3265,-3.3278,-3.3325,-3.3343,-3.3125,-3.3124,-3.3124,-3.3123,0,-3.2625,-3.269,-3.2747,-3.2807,-3.2848,-3.2922,-3.2932,-3.2973,-3.2966,-3.2979,-3.3069,-3.3102,-3.3164,-3.3189,-3.3183,-3.3298,-3.328,-3.3251,-3.3197,-3.3301,-3.3345,-3.3363,-3.3131,-3.3129,-3.3128,-3.3127,0,0,-3.2783,-3.2842,-3.2863,-3.289,-3.2939,-3.2989,-3.3063,-3.3123,-3.3158,-3.3202,-3.3263,-3.3349,-3.3323,-3.3356,-3.3354,-3.3405,-3.3512,-3.337,-3.3371,-3.3395,-3.364,-3.3662,-3.3683,-3.3499,-3.3502,-3.3505,-3.3637,0,-3.291,-3.3038,-3.3039,-3.3158,-3.3218,-3.3195,-3.3259,-3.3296,-3.331,-3.3363,-3.3378,-3.344,-3.34,-3.342,-3.347,-3.3488,-3.3561,-3.3479,-3.3556,-3.3559,-3.3546,-3.3706,-3.3729,-3.3852,-3.3654,-3.3657,-3.3659,0,-3.3075,-3.3124,-3.3248,-3.3289,-3.3314,-3.3372,-3.3427,-3.3479,-3.352,-3.3527,-3.3565,-3.3555,-3.363,-3.3573,-3.3677,-3.3621,-3.3653,-3.3667,-3.3671,-3.3679,-3.3615,-3.3718,-3.3891,-3.391,-3.3686,-3.3683,-3.3682,0,-3.3179,-3.3276,-3.3363,-3.3387,-3.3436,-3.3477,-3.3499,-3.3537,-3.3574,-3.3623,-3.3646,-3.3703,-3.3734,-3.3778,-3.3784,-3.3742,-3.3888,-3.3832,-3.3896,-3.3896,-3.3928,-3.3926,-3.4109,-3.3948,-3.3948,-3.3948,-3.3947,0,-3.332,-3.3398,-3.341,-3.3464,-3.355,-3.355,-3.3635,-3.3654,-3.3688,-3.3745,-3.3729,-3.3783,-3.3787,-3.3842,-3.3847,-3.3932,-3.3946,-3.3954,-3.3954,-3.3956,-3.3955,-3.3977,-3.3968,-3.3952,-3.3951,-3.395,-3.395,0,-3.3451,-3.3462,-3.3556,-3.3595,-3.3606,-3.3668,-3.3701,-3.3753,-3.3765,-3.3838,-3.3855,-3.3875,-3.3939,-3.3949,-3.4025,-3.4028,-3.413,-3.4122,-3.4117,-3.4115,-3.4179,-3.4173,-3.4383,-3.4411,-3.4231,-3.4233,-3.4234,0,-3.354,-3.3599,-3.3645,-3.3682,-3.3706,-3.3766,-3.3803,-3.3806,-3.3845,-3.3898,-3.3943,-3.4006,-3.4056,-3.4161,-3.4182,-3.424,-3.4233,-3.4302,-3.4241,-3.4241,-3.4234,-3.4231,-3.4237,-3.4314,-3.4316,-3.4318,-3.4319,0,-3.3699,-3.3702,-3.3756,-3.3812,-3.3857,-3.3902,-3.3944,-3.3975,-3.3983,-3.4028,-3.4094,-3.4133,-3.4211,-3.4274,-3.4332,-3.4355,-3.4339,-3.4338,-3.4356,-3.4358,-3.4353,-3.4357,-3.4149,-3.4333,-3.4332,-3.4331,-3.433,-3.4329,-3.3812,-3.3863,-3.3903,-3.3964,-3.3996,-3.4036,-3.4087,-3.4105,-3.416,-3.4224,-3.4222,-3.4295,-3.4335,-3.4411,-3.4438,-3.4495,-3.4472,-3.4498,-3.4505,-3.4511,-3.4518,-3.4343,-3.4505,-3.4505,-3.4505,-3.4504,-3.4504,0,-3.397,-3.3994,-3.405,-3.411,-3.4158,-3.4139,-3.4184,-3.4226,-3.429,-3.4329,-3.4379,-3.4455,-3.4516,-3.4543,-3.4603,-3.4643,-3.4637,-3.4659,-3.4656,-3.4662,-3.4534,-3.4513,-3.4663,-3.4663,-3.4663,-3.4663,-3.4663,-3.4663,-3.4057,-3.4143,-3.4151,-3.4253,-3.4277,-3.4348,-3.4376,-3.4413,-3.4444,-3.453,-3.4581,-3.4597,-3.4632,-3.4694,-3.4749,-3.4755,-3.4778,-3.4803,-3.4806,-3.4687,-3.4671,-3.4655,-3.4635,-3.4808,-3.4809,-3.4929,-3.493,-3.4931]}]]